STARLINK-34921

Last updated on Mon Oct 20 2025 00:02:08 GMT+0000 (Coordinated Universal Time)

1 65893U 25224M 25292.25002315 -.01219855 00000+0 -54131-2 0 9992 2 65893 53.1507 313.3805 0001032 88.0729 89.6374 15.86132258 3154
UTC large
Height (km)
Speed (km/s)
/
Latitude / Longitude
Inclination (degrees)
Orbital Period (minutes)
Azimuth
Elevation
Range (km)
Doppler Factor

Next 0 passes for location: London (51.5072 / 0.1276)

Sorry there are no passes over London.